Location: Ferintosh
(52.7647°N, 112.9692°W)
Time: 15:09:04
(UTC+00:00)

Transit 2A Rocket - Pass Details

Date: 19 May 2024
Orbit: 583 x 910 km, 66.7° (Epoch: 22 June)

Event Time Altitude Azimuth Distance (km) Brightness Sun altitude
Rises 14:01:33 0° 251° (WSW) 3,050 7.5 20.7°
Reaches altitude 10° 14:03:57 10° 260° (W) 2,189 6.9 21.1°
Maximum altitude 14:08:34 36° 327° (NNW) 1,193 6.0 21.8°
Drops below altitude 10° 14:13:38 10° 34° (NNE) 2,403 8.2 22.5°
Sets 14:16:24 0° 42° (NE) 3,390 9.0 22.9°
